Location: *
(51.1248°S, 108.4023°W)
Time: 02:57:09
(UTC+00:00)

Cosmos 1862 Rocket - Visible Passes

Search period start: 23 October 2021 00:00
Search period end: 02 November 2021 00:00
Orbit: 604 x 633 km, 82.5° (Epoch: 22 October)

Date Brightness Start Highest point End Pass type
(mag) Time Alt. Az. Time Alt. Az. Time Alt. Az.
23 Oct 4.9 07:05:27 10° S 07:09:25 33° ESE 07:09:25 33° ESE visible
23 Oct 4.8 08:43:24 10° SSW 08:46:34 29° WSW 08:46:34 29° WSW visible
24 Oct 4.1 07:22:28 10° S 07:26:30 53° SE 07:26:30 53° SE visible
24 Oct 5.4 09:01:12 10° SW 09:03:39 18° WSW 09:03:39 18° WSW visible
25 Oct 5.9 06:03:16 10° SSE 06:05:35 14° ESE 06:06:28 13° ESE visible
25 Oct 3.8 07:39:39 10° S 07:43:36 69° SSW 07:43:36 69° SSW visible
25 Oct 5.9 09:19:49 10° WSW 09:20:44 11° WSW 09:20:44 11° WSW visible
26 Oct 5.4 06:19:42 10° SSE 06:23:09 22° ESE 06:23:34 21° ESE visible
26 Oct 4.2 07:57:00 10° SSW 08:00:42 47° WSW 08:00:42 47° WSW visible
27 Oct 4.7 06:36:32 10° S 06:40:37 34° ESE 06:40:41 34° ESE visible
27 Oct 4.9 08:14:31 10° SSW 08:17:49 29° WSW 08:17:49 29° WSW visible
28 Oct 4.0 06:53:34 10° S 06:57:48 57° ESE 06:57:48 57° ESE visible
28 Oct 5.5 08:32:21 10° SW 08:34:56 18° WSW 08:34:56 18° WSW visible
29 Oct 5.8 05:34:16 10° SSE 05:36:44 14° ESE 05:37:47 13° ESE visible
29 Oct 3.6 07:10:46 10° SSW 07:14:56 76° SSW 07:14:56 76° SSW visible
29 Oct 5.9 08:51:06 10° WSW 08:52:04 11° WSW 08:52:04 11° WSW visible
30 Oct 5.3 05:50:45 10° SSE 05:54:17 22° ESE 05:54:56 22° E visible
30 Oct 4.1 07:28:07 10° SSW 07:32:04 48° WSW 07:32:04 48° WSW visible
31 Oct 4.6 06:07:36 10° S 06:11:44 35° ESE 06:12:05 35° E visible
31 Oct 4.9 07:45:39 10° SSW 07:49:14 29° W 07:49:14 29° W visible
01 Nov 3.8 06:24:39 10° S 06:29:06 59° ESE 06:29:15 59° E visible
01 Nov 5.5 08:03:30 10° SW 08:06:23 18° W 08:06:23 18° W visible
